Luverne, MN

7:39 AM CST on January 24, 2017 (GMT -0600)
Luverne

Weather History for KLYV - April, 2013

Change the Weather History Date:

Friday, April 12, 2013

  Actual Average (KPQN) Record (KPQN)
Temperature  
Mean Temperature 30 °F -  
Max Temperature 33 °F 52 °F 73 °F (2006)
Min Temperature 28 °F 33 °F 23 °F (2004)
Degree Days  
Heating Degree Days 34    
Moisture  
Dew Point 27 °F    
Average Humidity 84    
Maximum Humidity 93    
Minimum Humidity 70    
Precipitation  
Precipitation 0.00 in - - ()
Sea Level Pressure  
Sea Level Pressure 29.81 in    
Wind  
Wind Speed 12 mph (NW)    
Max Wind Speed 17 mph    
Max Gust Speed 22 mph    
Visibility 10 miles    
Events Rain , Snow    
Averages and records for this station are not official NWS values.
T = Trace of Precipitation, MM = Missing Value Source: NWS Daily Summary

Daily Weather History Graph

Daily Weather History Graph

Search for Another Location

Airport or City:

Trip Planner

Search our weather history database for the weather conditions in past years. The results will help you decide how hot, cold, wet, or windy it might be!

Date:

Astronomy

Apr. 12, 2013 Rise Set
Actual Time 6:46 AM CDT 8:05 PM CDT
Civil Twilight 6:17 AM CDT 8:34 PM CDT
Nautical Twilight 5:41 AM CDT 9:10 PM CDT
Astronomical Twilight 5:03 AM CDT 9:48 PM CDT
Moon 7:53 AM CDT (4/12) 10:41 PM CDT (4/12)
Length of Visible Light 14h 17m
Length of Day
13h 18m
Waxing Crescent, 5% of the Moon is Illuminated
Apr 12
Waxing Crescent
Apr 18
First Quarter
Apr 25
Full
May 2
Last Quarter
May 9
New

Hourly Weather History & Observations

Time (CDT) Temp. Windchill Dew Point Humidity Pressure Visibility Wind Dir Wind Speed Gust Speed Precip Events Conditions
12:17 AM 32.0 °F 23.0 °F 30.2 °F 93% 29.70 in 10.0 mi North 11.5 mph 16.1 mph N/A   Overcast
12:36 AM 32.0 °F 23.0 °F 30.2 °F 93% 29.71 in 10.0 mi North 11.5 mph - N/A   Overcast
12:56 AM 32.0 °F 23.6 °F 30.2 °F 93% 29.71 in 7.0 mi North 10.4 mph 16.1 mph N/A   Overcast
1:17 AM 32.0 °F 24.2 °F 30.2 °F 93% 29.70 in 7.0 mi North 9.2 mph - N/A   Overcast
1:36 AM 32.0 °F 23.6 °F 28.4 °F 87% 29.71 in 7.0 mi NNE 10.4 mph 19.6 mph N/A   Overcast
1:57 AM 32.0 °F 22.5 °F 28.4 °F 87% 29.71 in 7.0 mi North 12.7 mph 19.6 mph N/A   Overcast
2:16 AM 32.0 °F 23.0 °F 28.4 °F 87% 29.71 in 10.0 mi North 11.5 mph 16.1 mph N/A   Overcast
2:36 AM 32.0 °F 22.1 °F 28.4 °F 87% 29.72 in 10.0 mi North 13.8 mph - N/A   Overcast
2:57 AM 30.2 °F 20.8 °F 28.4 °F 93% 29.72 in 10.0 mi North 11.5 mph - N/A   Overcast
3:16 AM 30.2 °F 21.3 °F 28.4 °F 93% 29.72 in 10.0 mi North 10.4 mph - N/A   Overcast
3:37 AM 30.2 °F 20.2 °F 28.4 °F 93% 29.72 in 10.0 mi North 12.7 mph - N/A   Overcast
3:56 AM 30.2 °F 21.3 °F 26.6 °F 86% 29.72 in 10.0 mi North 10.4 mph - N/A   Overcast
4:16 AM 30.2 °F 21.9 °F 26.6 °F 86% 29.72 in 10.0 mi NNW 9.2 mph - N/A   Overcast
4:37 AM 30.2 °F 21.3 °F 26.6 °F 86% 29.72 in 10.0 mi NNW 10.4 mph - N/A   Overcast
4:56 AM 30.2 °F 22.6 °F 26.6 °F 86% 29.73 in 10.0 mi NNW 8.1 mph - N/A   Overcast
5:16 AM 30.2 °F 20.8 °F 26.6 °F 86% 29.72 in 10.0 mi North 11.5 mph 17.3 mph N/A   Overcast
5:37 AM 30.2 °F 21.3 °F 26.6 °F 86% 29.73 in 10.0 mi NNW 10.4 mph - N/A   Overcast
5:56 AM 30.2 °F 20.8 °F 26.6 °F 86% 29.73 in 10.0 mi North 11.5 mph - N/A   Overcast
6:16 AM 30.2 °F 20.8 °F 26.6 °F 86% 29.74 in 10.0 mi NNW 11.5 mph 17.3 mph N/A   Overcast
6:37 AM 30.2 °F 20.8 °F 26.6 °F 86% 29.74 in 10.0 mi NNW 11.5 mph - N/A   Overcast
6:56 AM 30.2 °F 20.2 °F 26.6 °F 86% 29.74 in 10.0 mi NNW 12.7 mph 17.3 mph N/A   Overcast
7:16 AM 30.2 °F 20.2 °F 26.6 °F 86% 29.75 in 10.0 mi NNW 12.7 mph - N/A   Overcast
7:37 AM 30.2 °F 20.2 °F 26.6 °F 86% 29.76 in 10.0 mi NNW 12.7 mph - N/A   Overcast
7:56 AM 30.2 °F 20.8 °F 26.6 °F 86% 29.76 in 7.0 mi NNW 11.5 mph 18.4 mph N/A   Overcast
8:17 AM 30.2 °F 20.2 °F 26.6 °F 86% 29.77 in 7.0 mi NNW 12.7 mph - N/A   Overcast
8:37 AM 30.2 °F 19.3 °F 26.6 °F 86% 29.77 in 7.0 mi NNW 15.0 mph 19.6 mph N/A   Overcast
8:56 AM 30.2 °F 19.3 °F 26.6 °F 86% 29.78 in 10.0 mi NNW 15.0 mph 18.4 mph N/A   Overcast
9:17 AM 30.2 °F 19.8 °F 26.6 °F 86% 29.78 in 10.0 mi NW 13.8 mph 17.3 mph N/A   Overcast
9:56 AM 32.0 °F 21.6 °F 26.6 °F 80% 29.78 in 10.0 mi NW 15.0 mph 18.4 mph N/A   Overcast
10:17 AM 32.0 °F 20.8 °F 26.6 °F 80% 29.79 in 10.0 mi NW 17.3 mph 20.7 mph N/A   Overcast
10:36 AM 32.0 °F 22.1 °F 26.6 °F 80% 29.80 in 10.0 mi NNW 13.8 mph - N/A   Overcast
10:56 AM 32.0 °F 22.5 °F 26.6 °F 80% 29.80 in 10.0 mi NW 12.7 mph - N/A   Overcast
11:16 AM 32.0 °F 21.6 °F 26.6 °F 80% 29.80 in 10.0 mi NW 15.0 mph - N/A   Overcast
11:36 AM 32.0 °F 22.1 °F 26.6 °F 80% 29.81 in 10.0 mi NW 13.8 mph 18.4 mph N/A   Overcast
11:57 AM 32.0 °F 23.6 °F 28.4 °F 87% 29.81 in 10.0 mi NNW 10.4 mph - N/A   Overcast
12:16 PM 32.0 °F 23.0 °F 26.6 °F 80% 29.81 in 10.0 mi NW 11.5 mph - N/A   Overcast
12:37 PM 32.0 °F 21.6 °F 26.6 °F 80% 29.81 in 10.0 mi NW 15.0 mph - N/A   Overcast
12:56 PM 32.0 °F 21.6 °F 26.6 °F 80% 29.82 in 10.0 mi NW 15.0 mph - N/A   Overcast
1:16 PM 32.0 °F 22.1 °F 26.6 °F 80% 29.82 in 10.0 mi NW 13.8 mph - N/A   Overcast
1:37 PM 32.0 °F 21.6 °F 26.6 °F 80% 29.83 in 10.0 mi NW 15.0 mph 18.4 mph N/A   Overcast
1:56 PM 32.0 °F 22.5 °F 26.6 °F 80% 29.83 in 10.0 mi NW 12.7 mph 18.4 mph N/A   Overcast
2:16 PM 32.0 °F 23.0 °F 26.6 °F 80% 29.84 in 10.0 mi NW 11.5 mph - N/A   Overcast
2:36 PM 33.8 °F 24.3 °F 26.6 °F 75% 29.84 in 10.0 mi NW 13.8 mph - N/A   Overcast
2:56 PM 33.8 °F 23.9 °F 24.8 °F 70% 29.85 in 10.0 mi NW 15.0 mph 19.6 mph N/A   Overcast
3:17 PM 33.8 °F 23.9 °F 26.6 °F 75% 29.85 in 10.0 mi NW 15.0 mph 19.6 mph N/A   Overcast
3:36 PM 32.0 °F 22.1 °F 26.6 °F 80% 29.85 in 10.0 mi NW 13.8 mph - N/A   Overcast
3:56 PM 32.0 °F 22.5 °F 26.6 °F 80% 29.85 in 10.0 mi NW 12.7 mph - N/A   Overcast
4:17 PM 32.0 °F 22.5 °F 26.6 °F 80% 29.85 in 10.0 mi WNW 12.7 mph - N/A   Overcast
4:36 PM 32.0 °F 21.6 °F 26.6 °F 80% 29.86 in 10.0 mi WNW 15.0 mph - N/A   Overcast
4:56 PM 32.0 °F 21.6 °F 26.6 °F 80% 29.87 in 10.0 mi WNW 15.0 mph - N/A   Overcast
5:17 PM 32.0 °F 21.2 °F 26.6 °F 80% 29.87 in 10.0 mi WNW 16.1 mph - N/A   Overcast
5:37 PM 32.0 °F 22.1 °F 26.6 °F 80% 29.88 in 10.0 mi WNW 13.8 mph - N/A   Overcast
5:56 PM 32.0 °F 21.6 °F 26.6 °F 80% 29.88 in 10.0 mi WNW 15.0 mph - N/A Rain Light Rain
6:17 PM 32.0 °F 21.2 °F 26.6 °F 80% 29.89 in 10.0 mi WNW 16.1 mph - N/A Rain Light Rain
6:37 PM 32.0 °F 20.8 °F 26.6 °F 80% 29.89 in 10.0 mi WNW 17.3 mph - N/A   Overcast
6:56 PM 32.0 °F 21.2 °F 26.6 °F 80% 29.89 in 10.0 mi WNW 16.1 mph - N/A   Overcast
7:17 PM 32.0 °F 22.1 °F 26.6 °F 80% 29.89 in 10.0 mi WNW 13.8 mph - N/A   Overcast
7:36 PM 32.0 °F 21.6 °F 26.6 °F 80% 29.89 in 10.0 mi WNW 15.0 mph 21.9 mph N/A   Overcast
7:57 PM 32.0 °F 22.5 °F 26.6 °F 80% 29.89 in 10.0 mi WNW 12.7 mph - N/A   Overcast
8:17 PM 32.0 °F 22.1 °F 26.6 °F 80% 29.89 in 10.0 mi WNW 13.8 mph - N/A   Overcast
8:36 PM 32.0 °F 22.1 °F 26.6 °F 80% 29.90 in 10.0 mi WNW 13.8 mph - N/A   Overcast
8:57 PM 32.0 °F 22.5 °F 26.6 °F 80% 29.90 in 10.0 mi WNW 12.7 mph - N/A Snow Light Snow
9:16 PM 32.0 °F 23.0 °F 26.6 °F 80% 29.91 in 10.0 mi WNW 11.5 mph - N/A   Overcast
9:36 PM 30.2 °F 21.3 °F 26.6 °F 86% 29.91 in 10.0 mi WNW 10.4 mph - N/A   Overcast
9:57 PM 30.2 °F 20.8 °F 26.6 °F 86% 29.92 in 10.0 mi WNW 11.5 mph - N/A   Mostly Cloudy
10:16 PM 28.4 °F 19.1 °F 24.8 °F 86% 29.92 in 10.0 mi NW 10.4 mph - N/A   Scattered Clouds
10:36 PM 28.4 °F 20.4 °F 26.6 °F 93% 29.92 in 10.0 mi WNW 8.1 mph - N/A Snow Light Snow
10:56 PM 30.2 °F 20.8 °F 26.6 °F 86% 29.92 in 10.0 mi WNW 11.5 mph - N/A   Mostly Cloudy
11:16 PM 28.4 °F 19.1 °F 24.8 °F 86% 29.92 in 10.0 mi WNW 10.4 mph - N/A   Scattered Clouds
11:37 PM 28.4 °F 19.7 °F 24.8 °F 86% 29.92 in 10.0 mi WNW 9.2 mph - N/A   Mostly Cloudy
11:56 PM 28.4 °F 19.1 °F 24.8 °F 86% 29.92 in 10.0 mi WNW 10.4 mph - N/A   Mostly Cloudy